Regional Weather Roundup
Issued by NWS

Home | Current Version | Previous Version | Text Only | Print | Product List | Glossary On
Versions: 1 2 3 4 5 6 7 8 9 10 11 12 13 14 15 16 17 18 19 20 21 22 23 24 25 26 27 28 29 30 31 32 33 34 35 36 37 38 39 40 41 42 43 44 45 46 47 48 49 50
000
ASUS43 KMKX 120800
RWRWI

WISCONSIN REGIONAL WEATHER ROUNDUP
NATIONAL WEATHER SERVICE MILWAUKEE/SULLIVAN WI
300 AM CDT SAT JUL 12 2014

NOTE: "FAIR" INDICATES FEW OR NO CLOUDS BELOW 12,000 FEET WITH NO
SIGNIFICANT WEATHER AND/OR OBSTRUCTIONS TO VISIBILITY.

WIZ001-002-006>008-014>016-023>028-120900-
NORTHWEST WISCONSIN

CITY           SKY/WX    TMP DP  RH WIND       PRES   REMARKS
SUPERIOR ARPT  PTCLDY    65  65  99 SW3       29.96F FOG
ASHLAND        PTCLDY    65  63  93 S5        29.97F
HAYWARD        PTCLDY    64  64 100 CALM      30.00S FOG
SIREN          FOG       65  64  97 CALM      29.99F VSB 1/2
RICE LAKE      MOCLDY    65  64  94 CALM      30.02F FOG
LADYSMITH      MOCLDY    67  65  94 CALM      30.03S
EAU CLAIRE     NOT AVBL
MENOMONIE      MOSUNNY   69  67  92 CALM      30.00F
NEW RICHMOND   PTCLDY    67  67  97 CALM      30.00F
OSCEOLA        PTCLDY    70  69  98 CALM      30.01F
$$

WIZ003>005-009-010-017-018-120900-
NORTH CENTRAL WISCONSIN

CITY           SKY/WX    TMP DP  RH WIND       PRES   REMARKS
WOODRUFF       PTCLDY    64  61  90 S3        30.03F
RHINELANDER    MOCLDY    65  62  90 SW5       30.04F
EAGLE RIVER    MOCLDY    64  59  83 SW5       30.03S
LAND O LAKES   CLOUDY    67  62  85 SW5       30.03F
PHILLIPS       CLOUDY    66  64  93 CALM      30.02S
TOMAHAWK       CLOUDY    65  61  86 CALM      30.04F
MEDFORD        MOCLDY    64  63  94 SW3       30.03F
MERRILL        MOCLDY    63  61  93 CALM      30.03F
$$

WIZ029-030-035-036-043>047-120900-
CENTRAL WISCONSIN

CITY           SKY/WX    TMP DP  RH WIND       PRES   REMARKS
WAUSAU         MOCLDY    67  61  81 CALM      30.01F
MOSINEE        PTCLDY    63  61  94 S7        30.04F
MARSHFIELD     MOCLDY    66  63  90 S7        30.02F
STEVENS POINT  CLOUDY    65  59  80 SW5       30.04F
WAUPACA        CLEAR     65  59  82 CALM      30.03F
WAUTOMA        NOT AVBL
WISC RAPIDS    CLOUDY    68  62  81 CALM      30.04F
CAMP DOUGLAS   NOT AVBL
$$

WIZ011>013-019>022-031-037>040-048>050-120900-
NORTHEAST WISCONSIN

CITY           SKY/WX    TMP DP  RH WIND       PRES   REMARKS
ANTIGO         PTCLDY    61  58  92 SW5       30.04F
STURGEON BAY   CLOUDY    66  55  68 S7        30.04F
GREEN BAY      MOCLDY    64  58  80 S3        30.03F
MANITOWOC      NOT AVBL
APPLETON       PTCLDY    64  55  72 S5        30.04F
CLINTONVILLE   PTCLDY    63  57  82 CALM      30.03F
OSHKOSH        PTCLDY    67  60  78 S7        30.03F
$$

WIZ032>034-041-042-053>061-120900-
SOUTHWEST WISCONSIN

CITY           SKY/WX    TMP DP  RH WIND       PRES   REMARKS
LA CROSSE      CLOUDY    71  66  84 E3        30.00F
SPARTA         CLOUDY    64  62  93 CALM      30.03F
VIROQUA        CLOUDY    68  65  89 SE3       30.04F
BOSCOBEL       CLOUDY    70  66  87 CALM      30.02F
PRAIRIE DU CHI PTCLDY    69  65  87 E3        30.01F
PLATTEVILLE    CLOUDY    69  65  88 SE3       30.04F
$$

WIZ056-057-062-063-064-067-068-120900-
SOUTH CENTRAL WISCONSIN

CITY           SKY/WX    TMP DP  RH WIND       PRES   REMARKS
BARABOO/DELLS  CLOUDY    69  61  76 CALM      30.04F
LONE ROCK      NOT AVBL
WATERTOWN      MOCLDY    65  60  85 CALM      30.06S
MADISON        CLOUDY    72  62  71 S6        30.04F
MIDDLETON      CLOUDY    72  61  67 S6        30.05F
MONROE         CLOUDY    70  63  78 S9        30.05F
JANESVILLE     CLOUDY    72  59  64 SE5       30.04F
$$

WIZ051-052-058>065-066-070>072-120900-
SOUTHEAST WISCONSIN

CITY           SKY/WX    TMP DP  RH WIND       PRES   REMARKS
MILWAUKEE      MOCLDY    70  59  68 S7        30.06F
WAUKESHA       PTCLDY    66  57  72 S5        30.08F
MILWAUKEE/TIMM CLEAR     66  55  68 S6        30.07F
RACINE         CLOUDY    70  61  73 S7        30.08F
BURLINGTON     PTCLDY    67  59  76 S5        30.07F
KENOSHA        CLOUDY    70  61  73 S6        30.07F
FOND DU LAC    PTCLDY    65  59  81 S7        30.04F
SHEBOYGAN      CLEAR     63  56  78 CALM      30.05F
WEST BEND      MOCLDY    63  54  72 SW3       30.06F
JUNEAU         PTCLDY    66  46  48 SE6       30.07F
$$

LSZ147-162-120900-
LAKE SUPERIOR

STATION/POSITION TIME  TEMP    WIND        PRES    WAVE
                       AIR SEA DIR/SP/G            HT/PER
                 (UTC) (F)     (DEG/KT/KT) (MB)    (FT/S)
W MID LAKE BUOY  0650   49 38  220/ 14/ 16 1014.1S   1
PORT WING        0740   62     230/  2/  4 1014.6S
SAXON HARBOR     0700          200/  7/ 13 1014.9S
$$

LMZ867-665-643>646-120900-
LAKE MICHIGAN

STATION/POSITION TIME  TEMP    WIND        PRES    WAVE
                       AIR SEA DIR/SP/G            HT/PER
                 (UTC) (F)     (DEG/KT/KT) (MB)    (FT/S)
N MID LAKE BUOY  0650   58 53  200/ 14/ 17 1016.9F   2/ 5
NORTHPORT PIER   0700   64     150/  4/  6 1016.9F
KEWAUNEE LAKESHO 0700   53     180/  8/ 10 1018.2F
SHEBOYGAN LAKESH 0700   64     180/ 16/ 17 1018.0F
PORT WASHINGTON  0700   57      CALM  /  3 1019.0
MILWAUKEE LAKESH 0700   59     110/  1/  2   N/A
S MID LAKE BUOY  0650   64 60  160/  8/  8 1019.5F   0
KENOSHA   LAKESH 0700   67     180/  8/  8   N/A
$$

TC  - TEMPERATURE IN CELSIUS
VSB - VISIBILITY IN STATUTE MILES
WCI - WIND CHILL INDEX
HX  - HEAT INDEX




USA.gov is the U.S. government's official web portal to all federal, state and local government web resources and services.